ATLAS 5 CENTAUR R/B (49819 NORAD) Tracking and Keplerian Element Data
This shows tracking and keplerian element data for the satellite.
Feedback or suggestion? Click here.
Element | Value |
Catalog | 49819 |
Name | ATLAS 5 CENTAUR R/B |
Epoch Orbit | 28 |
Epoch Day | 5.49983271 |
Epoch Year | 2022 |
RAAN | 131.3799 |
Inclination | 0.0982 |
Eccentricity | 0.0286965 |
Argument of Perigee | 131.7528 |
Mean Anonmoly | 93.5613 |
Mean Motion | 0.94817014 |
Decay Rate | -1E-06 |
L1 | 1 49819U 21118C 22005.49983271 -.00000100 00000+0 00000+0 0 9996 |
L2 | 2 49819 0.0982 131.3799 0286965 131.7528 93.5613 0.94817014 289 |
Live tracking and technical data element details for ATLAS 5 CENTAUR R/B (NORAD 49819). ATLAS 5 CENTAUR R/B can be tracked NOW for your location showing map with azimuth and elevation plus other details from your city location.
Track the satellite on the map from your city or location and see movement details for azimuth, elevation, latitude, longitude, range, height, and movement on the map or in text.
IsCatalogInMostPopularTable: catalog: 49819, numindb: 22
Update: records affected: 1
GetName: 49819 ATLAS 5 CENTAUR R/B
Hit Count: updated at: Mon, 23 May 2022 20:01:20 GMT